EW7806 Weather Reports


Display with metric or nautical units.
time (UTC)temp
F
wind
direction
speed
MPH
gust
MPH
rain 1hr
in
rain 24hr
in
rain mn
in
humidity
%
barometer
mb
20260901164411 65 214 0.0 0.0 0.00 0.04 0.00 74 1019.9
20260901163920 65 202 0.0 0.0 0.00 0.04 0.00 73 1019.9
20260901163411 66 210 0.0 0.0 0.00 0.04 0.00 72 1019.8
20260901162408 66 233 0.0 4.0 0.00 0.04 0.00 73 1019.9
20260901161911 66 240 0.0 2.0 0.00 0.04 0.00 72 1019.9
20260901160835 66 233 0.0 1.0 0.00 0.04 0.00 71 1019.8
20260901160334 66 244 0.0 1.0 0.00 0.04 0.00 71 1019.8
20260901155839 66 162 0.0 5.0 0.00 0.04 0.00 73 1019.8
20260901155338 66 272 0.0 5.0 0.00 0.04 0.00 71 1019.7
20260901154808 66 167 0.0 4.0 0.00 0.05 0.00 73 1019.7
20260901154307 66 47 0.0 4.0 0.00 0.05 0.00 72 1019.8
20260901152738 66 213 0.0 6.0 0.00 0.05 0.00 71 1019.7
20260901151707 66 89 0.0 6.0 0.00 0.06 0.00 74 1019.7
20260901151208 66 212 0.0 6.0 0.00 0.06 0.00 74 1019.7
20260901150711 66 233 0.0 4.0 0.00 0.07 0.00 74 1019.6
20260901150136 66 219 0.0 1.0 0.00 0.07 0.00 74 1019.7
20260901145634 66 261 0.0 2.0 0.00 0.07 0.00 74 1019.7
20260901145113 66 325 0.0 1.0 0.00 0.07 0.00 73 1019.6
20260901143614 66 226 0.0 0.0 0.00 0.08 0.00 74 1019.6
20260901143109 66 226 0.0 2.0 0.00 0.08 0.00 74 1019.6
20260901142108 65 235 0.0 2.0 0.00 0.09 0.00 75 1019.6
20260901141537 65 285 0.0 2.0 0.00 0.09 0.00 75 1019.6
20260901141040 65 255 0.0 8.0 0.00 0.10 0.00 76 1019.6
20260901140533 65 236 1.0 8.0 0.00 0.10 0.00 75 1019.6
20260901140051 65 236 1.0 8.0 0.00 0.10 0.00 75 1019.6
20260901135531 65 214 1.0 8.0 0.00 0.10 0.00 75 1019.6
20260901134527 65 231 0.0 4.0 0.00 0.10 0.00 78 1019.6
20260901134025 65 195 0.0 4.0 0.00 0.10 0.00 77 1019.6
20260901133538 65 338 0.0 6.0 0.00 0.12 0.00 75 1019.5
20260901133037 65 291 0.0 6.0 0.00 0.12 0.00 76 1019.5
20260901132053 65 302 1.0 8.0 0.00 0.16 0.00 75 1019.6
20260901131546 65 215 1.0 5.0 0.00 0.17 0.00 76 1019.5
20260901130528 65 246 2.0 10.0 0.00 0.17 0.00 75 1019.4
20260901130008 65 295 2.0 10.0 0.00 0.17 0.00 74 1019.4
20260901125538 65 300 1.0 10.0 0.00 0.17 0.00 75 1019.5
20260901125019 65 236 0.0 9.0 0.00 0.19 0.00 77 1019.4
20260901124520 66 243 1.0 9.0 0.00 0.19 0.00 76 1019.5
20260901124032 66 302 1.0 9.0 0.00 0.19 0.00 76 1019.5
20260901123543 65 299 1.0 9.0 0.00 0.19 0.00 73 1019.6
20260901123037 65 293 1.0 9.0 0.00 0.19 0.00 73 1019.6
20260901122539 65 225 1.0 8.0 0.00 0.19 0.00 73 1019.6
20260901122036 65 268 1.0 8.0 0.00 0.19 0.00 74 1019.5
20260901121501 65 267 1.0 11.0 0.00 0.19 0.00 74 1019.5
20260901120946 66 290 1.0 11.0 0.00 0.19 0.00 75 1019.5
20260901120444 66 296 1.0 6.0 0.00 0.19 0.00 76 1019.4
20260901115935 65 310 1.0 8.0 0.00 0.19 0.00 75 1019.5
20260901115434 65 351 1.0 8.0 0.00 0.19 0.00 75 1019.4
20260901114910 65 220 1.0 10.0 0.00 0.19 0.00 74 1019.4
20260901114335 66 219 1.0 10.0 0.00 0.19 0.00 73 1019.4
20260901113834 66 268 1.0 5.0 0.00 0.19 0.00 72 1019.3
20260901112810 65 305 1.0 7.0 0.00 0.19 0.00 70 1019.5
20260901112306 66 240 1.0 7.0 0.00 0.19 0.00 73 1019.4
20260901111806 66 295 1.0 6.0 0.00 0.19 0.00 71 1019.4
20260901111239 66 270 1.0 8.0 0.00 0.19 0.00 73 1019.3
20260901110737 66 224 1.0 8.0 0.00 0.19 0.00 72 1019.4
20260901110246 65 300 1.0 4.0 0.00 0.19 0.00 72 1019.3
20260901105211 65 255 2.0 10.0 0.00 0.19 0.00 71 1019.3
20260901104717 65 187 2.0 9.0 0.00 0.20 0.00 70 1019.3
20260901104212 66 236 2.0 9.0 0.00 0.20 0.00 70 1019.3
20260901103708 66 290 1.0 11.0 0.00 0.20 0.00 68 1019.3
20260901103210 66 289 2.0 11.0 0.00 0.20 0.00 70 1019.2
20260901102710 66 162 2.0 11.0 0.00 0.20 0.00 73 1019.2
20260901102214 65 196 2.0 11.0 0.00 0.20 0.00 74 1019.1
20260901101713 65 221 1.0 6.0 0.00 0.24 0.00 73 1019.1
20260901101141 65 271 1.0 12.0 0.00 0.24 0.00 74 1019.1
20260901095637 65 170 1.0 10.0 0.00 0.24 0.00 75 1018.9
20260901095136 65 247 1.0 10.0 0.00 0.25 0.00 75 1018.9
20260901094126 65 212 1.0 13.0 0.00 0.25 0.00 75 1018.8
20260901093116 65 270 1.0 8.0 0.00 0.27 0.00 77 1018.7
20260901092617 65 246 1.0 9.0 0.00 0.28 0.00 76 1018.7
20260901092110 66 240 1.0 9.0 0.00 0.29 0.00 72 1018.6
20260901091109 66 155 1.0 14.0 0.00 0.29 0.00 73 1018.5
20260901085610 65 239 1.0 14.0 0.00 0.30 0.00 73 1018.5
20260901084625 65 200 0.0 4.0 0.00 0.31 0.00 75 1018.4
20260901084122 65 295 1.0 11.0 0.00 0.31 0.00 74 1018.4
20260901083113 65 199 1.0 11.0 0.00 0.31 0.00 74 1018.3
20260901082615 65 257 1.0 11.0 0.00 0.31 0.00 74 1018.3
20260901081541 65 191 1.0 9.0 0.00 0.31 0.00 76 1018.1
20260901081037 64 236 1.0 9.0 0.00 0.31 0.00 75 1018.1
20260901080549 63 308 0.0 5.0 0.00 0.31 0.00 78 1018.1
20260901080052 63 181 0.0 3.0 0.00 0.31 0.00 78 1018.0
20260901075523 63 262 0.0 7.0 0.00 0.31 0.00 80 1018.0
20260901075021 63 189 0.0 7.0 0.00 0.31 0.00 80 1018.0
20260901074037 63 262 0.0 7.0 0.00 0.31 0.00 81 1017.8
20260901073524 63 192 0.0 5.0 0.00 0.31 0.00 81 1017.6
20260901073033 63 274 0.0 5.0 0.00 0.31 0.00 82 1017.6
20260901072527 63 186 0.0 0.0 0.00 0.31 0.00 83 1017.6
20260901072030 63 256 0.0 6.0 0.00 0.31 0.00 82 1017.6
20260901071517 62 256 0.0 6.0 0.00 0.31 0.00 82 1017.5
20260901071034 62 238 0.0 3.0 0.00 0.31 0.00 82 1017.5
20260901070530 62 259 0.0 0.0 0.00 0.31 0.00 83 1017.5
20260901065531 62 268 0.0 1.0 0.00 0.31 0.00 83 1017.3
20260901065059 62 256 0.0 5.0 0.00 0.31 0.00 83 1017.4
20260901064520 62 256 0.0 5.0 0.00 0.31 0.00 82 1017.3
20260901063543 62 155 0.0 5.0 0.00 0.31 0.00 84 1017.3
20260901063020 62 239 0.0 0.0 0.00 0.31 0.00 85 1017.2
20260901062457 61 264 0.0 1.0 0.00 0.35 0.00 85 1017.2
20260901061934 61 244 0.0 0.0 0.00 0.57 0.00 85 1017.2
20260901060934 61 259 0.0 3.0 0.00 0.57 0.00 85 1017.1
20260901060415 61 223 0.0 5.0 0.00 0.57 0.00 85 1017.0
20260901055907 61 223 0.0 5.0 0.00 0.57 0.00 85 1016.9
20260901055408 61 256 0.0 1.0 0.00 0.57 0.00 84 1016.9
20260901054912 61 233 0.0 1.0 0.00 0.57 0.00 84 1016.8
20260901054407 61 169 0.0 1.0 0.00 0.57 0.00 85 1016.8
20260901053908 61 264 0.0 4.0 0.00 0.57 0.00 85 1016.7
20260901053410 61 250 0.0 4.0 0.00 0.58 0.00 86 1016.7
20260901052909 61 258 0.0 2.0 0.00 0.58 0.00 86 1016.7
20260901052406 61 258 0.0 2.0 0.00 0.59 0.00 86 1016.6
20260901051906 61 255 0.0 0.0 0.00 0.68 0.00 86 1016.6
20260901051338 61 250 0.0 2.0 0.00 0.68 0.00 86 1016.7
20260901050836 61 250 0.0 2.0 0.00 0.69 0.00 86 1016.6
20260901045813 61 235 0.0 1.0 0.00 0.69 0.00 86 1016.5
20260901045307 61 235 0.0 1.0 0.00 0.69 0.00 86 1016.5
20260901044306 61 244 0.0 1.0 0.00 0.69 0.00 86 1016.4
20260901043236 61 258 0.0 0.0 0.00 0.69 0.00 87 1016.3
20260901042711 61 258 0.0 0.0 0.00 0.69 0.00 87 1016.3
20260901042214 61 258 0.0 5.0 0.00 0.69 0.00 87 1016.3
20260901041713 61 244 0.0 5.0 0.00 0.69 0.00 88 1016.2
20260901041212 61 243 0.0 2.0 0.00 0.69 0.00 88 1016.2
20260901040711 61 241 0.0 1.0 0.00 0.69 0.00 88 1016.1
20260901040227 61 264 0.0 0.0 0.00 0.69 0.00 88 1016.1
20260901035713 61 269 0.0 0.0 0.00 0.69 0.00 88 1016.1
20260901035211 61 253 0.0 0.0 0.00 0.69 0.00 88 1016.1
20260901034201 61 253 0.0 0.0 0.00 0.69 0.00 88 1016.0
20260901033635 61 254 0.0 0.0 0.00 0.69 0.00 88 1015.9
20260901033139 61 253 0.0 0.0 0.00 0.69 0.00 88 1015.9
20260901032635 61 253 0.0 0.0 0.00 0.69 0.00 88 1015.9
20260901032113 61 253 0.0 0.0 0.00 0.69 0.00 88 1015.9
20260901031611 61 253 0.0 0.0 0.00 0.69 0.00 88 1015.9
20260901031109 60 253 0.0 0.0 0.00 0.69 0.00 88 1015.9
20260901030610 60 253 0.0 0.0 0.00 0.72 0.00 89 1016.0
20260901030115 60 253 0.0 0.0 0.00 0.72 0.00 89 1015.9
20260901025609 61 253 0.0 0.0 0.00 0.72 0.00 88 1016.0
20260901025115 61 253 0.0 0.0 0.00 0.72 0.00 88 1016.0
20260901024611 61 253 0.0 0.0 0.00 0.72 0.00 88 1015.9
20260901024109 61 254 0.0 0.0 0.00 0.72 0.00 88 1015.9
20260901023119 61 253 0.0 0.0 0.00 0.72 0.00 88 1015.9
20260901022610 62 253 0.0 0.0 0.00 0.72 0.00 88 1015.8
20260901022111 62 253 0.0 0.0 0.00 0.72 0.00 87 1015.8
20260901021611 62 254 0.0 0.0 0.00 0.72 0.00 87 1015.7
20260901021113 62 252 0.0 0.0 0.00 0.72 0.00 87 1015.6
20260901020609 62 252 0.0 0.0 0.00 0.72 0.00 86 1015.6
20260901020115 62 251 0.0 4.0 0.00 0.72 0.00 86 1015.7
20260901015119 63 256 0.0 2.0 0.00 0.72 0.00 86 1015.7
20260901014616 63 256 0.0 4.0 0.00 0.72 0.00 86 1015.7
20260901014110 63 257 0.0 4.0 0.00 0.72 0.00 86 1015.8
20260901013609 63 250 0.0 2.0 0.00 0.72 0.00 87 1015.7
20260901013106 63 250 0.0 2.0 0.00 0.72 0.00 87 1015.7
20260901012058 63 252 0.0 4.0 0.00 0.72 0.00 87 1015.6
20260901011549 64 253 0.0 4.0 0.00 0.72 0.00 87 1015.5
20260901010539 64 248 0.0 1.0 0.00 0.72 0.00 87 1015.4
20260901010125 64 248 0.0 4.0 0.00 0.72 0.00 87 1015.5
20260901004936 64 254 0.0 6.0 0.00 0.72 0.00 87 1015.4
20260901004440 64 254 0.0 6.0 0.00 0.72 0.00 87 1015.3
20260901003436 64 260 0.0 4.0 0.00 0.73 0.00 87 1015.3
20260901002936 64 266 0.0 4.0 0.00 0.73 0.00 87 1015.3
20260901002410 64 269 0.0 3.0 0.00 0.73 0.00 87 1015.3
20260901001908 64 238 0.0 2.0 0.00 0.74 0.00 88 1015.3
20260901001411 64 238 0.0 2.0 0.00 0.74 0.00 88 1015.3
20260901000909 64 257 0.0 6.0 0.00 0.74 0.00 88 1015.3
20260901000408 64 186 0.0 6.0 0.00 0.74 0.00 88 1015.3
20260831235912 64 272 0.0 8.0 0.00 0.74 0.00 88 1015.2
20260831235408 64 238 0.0 8.0 0.00 0.74 0.00 88 1015.2
20260831234913 63 207 0.0 2.0 0.00 0.74 0.00 88 1015.2
20260831234417 63 243 0.0 8.0 0.00 0.74 0.00 88 1015.2
20260831233910 63 264 0.0 8.0 0.00 0.74 0.00 89 1015.1
20260831233409 63 213 0.0 1.0 0.00 0.74 0.00 90 1015.0
20260831232909 63 262 0.0 4.0 0.00 0.74 0.00 90 1015.0
20260831232411 63 260 0.0 4.0 0.00 0.74 0.00 91 1015.0
20260831231833 62 247 0.0 0.0 0.00 0.74 0.00 91 1014.9
20260831231332 62 247 0.0 2.0 0.00 0.74 0.00 91 1015.0
20260831230809 62 201 0.0 2.0 0.00 0.74 0.00 91 1014.9
20260831230309 62 238 0.0 1.0 0.00 0.74 0.00 91 1014.9
20260831225811 62 245 0.0 1.0 0.00 0.74 0.00 91 1014.9
20260831224815 61 205 0.0 0.0 0.00 0.74 0.00 91 1014.9
20260831224310 61 205 0.0 0.0 0.00 0.74 0.00 91 1014.9
20260831223809 61 205 0.0 0.0 0.00 0.74 0.00 91 1014.8
20260831223324 61 205 0.0 0.0 0.00 0.74 0.00 91 1014.9
20260831222824 61 205 0.0 0.0 0.00 0.74 0.00 91 1014.8
20260831222312 61 205 0.0 0.0 0.00 0.74 0.00 91 1014.9
20260831221821 61 205 0.0 0.0 0.00 0.74 0.00 91 1014.9
20260831221311 61 205 0.0 0.0 0.00 0.74 0.00 91 1014.8
20260831220810 61 205 0.0 0.0 0.00 0.74 0.00 91 1014.9
20260831220316 60 205 0.0 0.0 0.00 0.74 0.00 91 1014.9
20260831215811 60 205 0.0 0.0 0.00 0.74 0.74 91 1014.8
20260831215239 60 205 0.0 0.0 0.00 0.74 0.74 91 1014.8
20260831213715 60 205 0.0 0.0 0.00 0.74 0.74 91 1014.8
20260831213208 60 205 0.0 0.0 0.00 0.75 0.74 91 1014.8
20260831212708 60 205 0.0 0.0 0.00 0.75 0.74 91 1014.8
20260831212210 60 205 0.0 0.0 0.00 0.75 0.74 91 1014.7
20260831211708 60 205 0.0 0.0 0.00 0.75 0.74 91 1014.6
20260831211210 60 205 0.0 0.0 0.00 0.75 0.74 91 1014.6
20260831210714 60 205 0.0 0.0 0.00 0.75 0.74 91 1014.5
20260831210213 60 205 0.0 0.0 0.00 0.75 0.74 91 1014.5
20260831205708 60 205 0.0 0.0 0.00 0.75 0.74 91 1014.4
20260831205205 60 205 0.0 0.0 0.00 0.75 0.74 91 1014.4
20260831204648 60 205 0.0 0.0 0.00 0.75 0.74 91 1014.3
20260831204136 60 205 0.0 0.0 0.00 0.75 0.74 91 1014.3
20260831203634 61 205 0.0 0.0 0.00 0.75 0.74 91 1014.2
20260831203110 61 205 0.0 0.0 0.00 0.75 0.74 91 1014.2
20260831202612 61 205 0.0 0.0 0.00 0.75 0.74 91 1014.2
20260831202107 61 205 0.0 0.0 0.00 0.75 0.74 90 1014.2
20260831201607 61 205 0.0 0.0 0.00 0.75 0.74 90 1014.1
20260831201102 62 205 0.0 0.0 0.00 0.75 0.74 90 1014.0
20260831200027 62 205 0.0 0.0 0.00 0.75 0.74 90 1014.0
20260831195516 62 205 0.0 1.0 0.00 0.75 0.74 90 1013.9
20260831195022 62 205 0.0 1.0 0.00 0.75 0.74 90 1013.8
20260831194016 63 205 0.0 5.0 0.00 0.75 0.74 90 1013.8
20260831193536 63 233 0.0 5.0 0.00 0.75 0.74 89 1013.8
20260831193035 63 254 0.0 9.0 0.00 0.75 0.74 89 1013.7
20260831192525 63 254 0.0 9.0 0.00 0.75 0.74 89 1013.7
20260831192021 62 256 0.0 6.0 0.00 0.75 0.74 90 1013.6
20260831191525 62 256 0.0 6.0 0.00 0.75 0.74 89 1013.5
20260831190546 63 224 0.0 5.0 0.00 0.75 0.74 89 1013.3
20260831190015 63 227 0.0 2.0 0.00 0.75 0.74 89 1013.3
20260831184433 63 219 1.0 9.0 0.00 0.75 0.74 89 1012.9
20260831183909 63 246 0.0 9.0 0.00 0.75 0.74 90 1012.9
20260831183413 63 236 0.0 0.0 0.00 0.75 0.74 90 1012.7
20260831182909 63 250 0.0 9.0 0.00 0.75 0.74 90 1012.7
20260831181906 62 215 0.0 0.0 0.00 0.75 0.74 90 1012.4
20260831181334 62 205 0.0 6.0 0.00 0.75 0.74 90 1012.4
20260831180829 62 206 0.0 6.0 0.00 0.75 0.74 90 1012.3
20260831180317 62 163 0.0 3.0 0.00 0.75 0.74 90 1012.2
20260831175337 62 226 1.0 12.0 0.00 0.75 0.70 90 1012.0
20260831174324 62 186 1.0 10.0 0.04 0.75 0.70 90 1011.9
20260831173819 62 256 1.0 10.0 0.04 0.75 0.70 90 1011.8
20260831173318 62 229 1.0 9.0 0.04 0.75 0.70 90 1011.8
20260831172746 62 149 1.0 9.0 0.04 0.75 0.70 90 1011.8
20260831172234 62 188 1.0 9.0 0.04 0.75 0.70 91 1011.7
20260831171712 62 252 1.0 9.0 0.04 0.75 0.70 91 1011.7
20260831171225 62 244 1.0 7.0 0.04 0.75 0.70 91 1011.7
20260831170218 62 253 2.0 12.0 0.04 0.75 0.74 91 1011.5
20260831165710 62 244 2.0 14.0 0.04 0.75 0.71 91 1011.5
20260831165213 63 174 1.0 14.0 0.04 0.75 0.67 90 1011.3